Medicine Lodge, KS

7:03 PM CST on December 16, 2017 (GMT -0600)
Medicine Lodge

Weather History for KP28 - November, 2011

Change the Weather History Date:

Thursday, November 3, 2011

  Actual Average Record
Temperature  
Mean Temperature 41 °F 51 °F  
Max Temperature 53 °F 64 °F 88 °F (1909)
Min Temperature 28 °F 39 °F 10 °F (1991)
Degree Days  
Heating Degree Days 24 14  
Month to date heating degree days 40  
Since 1 July heating degree days 309  
Cooling Degree Days 0 0  
Month to date cooling degree days 0  
Year to date cooling degree days 1769  
Moisture  
Dew Point 25 °F    
Average Humidity 62    
Maximum Humidity 85    
Minimum Humidity 32    
Precipitation  
Precipitation 0.00 in 0.06 in 0.99 in (1964)
Month to date precipitation 0.17  
Year to date precipitation 25.46  
Snow  
Snow 0.00 in 0.00 in - ()
Month to date snowfall 0.0  
Since 1 July snowfall 0.0  
Since 1 September snowfall 0.0  
Snow Depth -    
Sea Level Pressure  
Sea Level Pressure 30.36 in    
Wind  
Wind Speed 12 mph (NNW)    
Max Wind Speed 16 mph    
Max Gust Speed 25 mph    
T = Trace of Precipitation, MM = Missing Value Source: NWS Daily Summary

Daily Weather History Graph

Daily Weather History Graph

Search for Another Location

Airport or City:

Trip Planner

Search our weather history database for the weather conditions in past years. The results will help you decide how hot, cold, wet, or windy it might be!

Date:

Astronomy

Nov. 03, 2011 Rise Set
Actual Time 8:00 AM CDT 6:34 PM CDT
Civil Twilight 7:33 AM CDT 7:01 PM CDT
Nautical Twilight 7:02 AM CDT 7:32 PM CDT
Astronomical Twilight 6:32 AM CDT 8:02 PM CDT
Moon 2:51 PM CDT (11/3) 1:23 AM CDT (11/3)
Length of Visible Light 11h 28m
Length of Day
10h 33m
First Quarter, 60% of the Moon is Illuminated
Nov 3
First Quarter
Nov 10
Full
Nov 18
Last Quarter
Nov 25
New
Dec 2
First Quarter

Hourly Weather History & Observations

Time (CDT) Temp. Windchill Dew Point Humidity Pressure Visibility Wind Dir Wind Speed Gust Speed Precip Events Conditions
12:56 AM 36.0 °F 26.3 °F 28.9 °F 76% 30.36 in - NNW 16.1 mph - N/A   Unknown
1:56 AM 35.1 °F 25.2 °F 28.0 °F 76% 30.36 in - NNW 16.1 mph - N/A   Unknown
2:56 AM 34.0 °F 23.8 °F 27.0 °F 75% 30.37 in - NNW 16.1 mph 25.3 mph N/A   Unknown
3:56 AM 34.0 °F 23.8 °F 26.1 °F 73% 30.38 in - NNW 16.1 mph 25.3 mph N/A   Unknown
4:56 AM 33.1 °F 22.6 °F 25.0 °F 72% 30.36 in - NNW 16.1 mph 23.0 mph N/A   Unknown
5:56 AM 33.1 °F 24.4 °F 25.0 °F 72% 30.38 in - NNW 11.5 mph - N/A   Unknown
6:56 AM 32.0 °F 23.6 °F 24.1 °F 73% 30.40 in - NNW 10.4 mph - N/A   Unknown
7:56 AM 30.9 °F 22.2 °F 24.1 °F 76% 30.42 in - NW 10.4 mph - N/A   Unknown
8:56 AM 33.1 °F 25.5 °F 24.1 °F 70% 30.43 in - NNW 9.2 mph - N/A   Unknown
9:56 AM 37.0 °F 28.9 °F 25.0 °F 62% 30.45 in - NNW 12.7 mph - N/A   Unknown
10:56 AM 42.1 °F 34.9 °F 26.1 °F 53% 30.43 in - NNW 13.8 mph - N/A   Unknown
11:56 AM 45.0 °F 38.2 °F 25.0 °F 46% 30.43 in - North 15.0 mph 21.9 mph N/A   Unknown
1:56 PM 48.0 °F - 25.0 °F 41% 30.35 in - NNW 12.7 mph - N/A   Unknown
2:56 PM 50.0 °F - 25.0 °F 38% 30.33 in - Variable 6.9 mph - N/A   Unknown
3:56 PM 52.0 °F - 23.0 °F 32% 30.31 in - North 9.2 mph - N/A   Unknown
4:56 PM 51.1 °F - 23.0 °F 33% 30.31 in - WNW 4.6 mph - N/A   Unknown
5:56 PM 48.9 °F - 23.0 °F 36% 30.31 in - NNW 4.6 mph - N/A   Unknown
6:56 PM 44.1 °F 42.5 °F 25.0 °F 47% 30.31 in - North 3.5 mph - N/A   Unknown
7:56 PM 41.0 °F 37.1 °F 26.1 °F 55% 30.31 in - NE 5.8 mph - N/A   Unknown
8:56 PM 35.1 °F 32.2 °F 27.0 °F 72% 30.30 in - North 3.5 mph - N/A   Unknown
9:56 PM 33.1 °F 30.0 °F 27.0 °F 78% 30.31 in - NNE 3.5 mph - N/A   Unknown
10:56 PM 30.9 °F - 26.1 °F 82% 30.31 in - Calm Calm - N/A   Unknown
11:56 PM 28.9 °F - 25.0 °F 85% 30.30 in - Calm Calm - N/A   Unknown